Location: Hopewell Observatory
(38.8698°N, 77.6988°W)
Time: 03:09:28
(UTC-04:00)

Daily predictions for brighter satellites

Satellite Brightness Start Highest point End
(mag) Time Altitude Azimuth Time Altitude Azimuth Time Altitude Azimuth
Cosmos 2369 Rocket 3.8 00:21:44 10° N 00:25:24 28° NE 00:25:24 28° NE
Cosmos 1943 Rocket 4.3 00:26:15 10° N 00:29:59 19° NE 00:29:59 19° NE
CZ-4C R/B 4.1 00:24:36 10° NW 00:29:38 30° W 00:29:38 30° W
ATLAS CENTAUR R/B 4.4 00:45:52 13° NNW 00:45:52 13° NNW 00:46:48 10° N
SL-16 R/B 4.0 00:49:41 25° NW 00:49:41 25° NW 00:54:15 10° N
CZ-2C R/B 4.0 01:03:59 10° N 01:07:21 36° NNW 01:07:21 36° NNW
ATLAS 2AS CENTAUR R/B 3.9 01:11:16 37° WNW 01:13:09 42° NW 01:20:47 10° NNE
NOSS 3-2 (A) 4.3 01:18:43 10° NNW 01:26:10 59° NE 01:26:33 59° ENE
ATLAS 3B R/B 4.1 01:33:15 10° NW 01:36:24 27° WNW 01:36:24 27° WNW
Cosmos 1943 4.5 01:43:36 36° N 01:43:36 36° N 01:47:11 10° NNE
COSMOS 2455 3.8 01:52:23 10° NNW 01:57:37 44° NE 01:57:37 44° NE
Cosmos 2369 Rocket 4.3 02:05:38 10° NW 02:07:11 18° NW 02:07:11 18° NW
Cosmos 2366 rocket 4.5 02:06:49 10° N 02:11:42 57° N 02:11:42 57° N
Cosmos 1943 Rocket 3.7 02:08:48 10° NNW 02:11:29 29° NW 02:11:29 29° NW
USA 215 3.4 02:10:34 10° NE 02:16:03 64° ENE 02:16:03 64° ENE
SL-16 R/B 4.3 02:26:01 16° ESE 02:29:28 26° ENE 02:34:24 10° N
CENTAUR R/B 3.8 02:27:47 10° NNW 02:35:24 50° NE 02:43:31 10° ESE
NOSS 3-2 (C) 4.1 02:31:20 10° NW 02:37:54 63° WNW 02:37:54 63° WNW
Lacrosse 5 rocket 3.1 02:47:41 34° NE 02:47:41 34° NE 02:50:22 10° NE
COSMOS 2406 3.6 02:51:03 61° N 02:51:03 61° N 02:55:53 10° NNE
SL-08 R/B 4.3 02:53:04 45° NNE 02:53:04 45° NNE 02:56:36 10° N
Nadezhda 3 Rocket 4.0 03:01:28 74° NW 03:01:28 74° NW 03:07:31 10° N
Meteor 2-8 Rocket 4.3 03:04:53 87° N 03:04:53 87° N 03:10:56 10° N
IRS-1D 4.5 03:01:14 10° NNE 03:06:11 40° E 03:06:29 39° ESE
ARIANE 5 R/B 3.5 03:04:22 10° NNE 03:09:16 39° E 03:09:38 38° ESE
Resurs 1-4 Rocket 2.9 03:05:09 10° NNE 03:10:09 42° E 03:10:30 42° ESE
ADEOS 4.2 03:11:44 10° NNE 03:16:47 47° E 03:17:11 46° ESE
NOSS 2-2 (C) 4.4 03:21:59 45° N 03:21:59 45° N 03:25:22 10° NNE
Cosmos 1470 4.2 03:21:33 10° N 03:25:00 34° ENE 03:25:00 34° ENE
Cosmos 1825 Rocket 4.4 03:28:51 45° NNW 03:28:51 45° NNW 03:32:01 10° N
NPP 4.0 03:23:58 10° N 03:28:55 53° WNW 03:28:55 53° WNW
UNK 3.9 03:31:16 70° ENE 03:31:16 70° ENE 03:35:47 10° N
CZ-2D R/B 2.1 03:29:06 10° NNE 03:34:23 71° ESE 03:34:59 64° SSE
COSMOS 2487 3.9 03:39:06 38° NE 03:39:06 38° NE 03:41:36 10° NNE
AQUA 4.4 03:35:33 10° N 03:39:31 44° NW 03:39:31 44° NW
Cosmos 1733 4.0 03:38:10 10° N 03:41:25 50° NE 03:41:25 50° NE
Cosmos 1818 3.8 03:43:32 51° WNW 03:43:57 52° NW 03:49:17 10° NNE
UNKNOWN OBJECT B 3.8 03:40:51 10° NNE 03:44:41 40° E 03:45:06 39° ESE
Cosmos 1821 Rocket 4.0 03:39:30 10° NNW 03:45:26 54° W 03:45:49 53° WSW
Cosmos 1953 3.6 03:43:07 10° NNW 03:45:27 32° NNW 03:45:27 32° NNW
Cosmos 2278 4.0 03:47:29 10° NNW 03:53:12 68° ENE 03:58:51 10° SSE
USA 161 3.5 03:58:15 25° E 03:58:33 26° ENE 04:00:58 10° NNE
Cosmos 1656 4.5 03:53:34 10° NNW 03:58:50 49° ENE 04:04:05 10° SE
USA 215 4.3 03:53:57 10° NNE 03:59:44 35° NNW 04:03:23 20° W
Cosmos 1934 Rocket 4.1 03:53:53 10° NNW 04:00:01 54° W 04:01:25 45° SW
GPS 2-05 Rocket1 4.4 04:03:31 28° ESE 04:03:31 28° ESE 04:05:32 10° E
Cosmos 2369 3.8 03:56:32 10° NNW 04:02:18 79° ENE 04:08:01 10° SSE
COBE Rocket 3.8 03:58:02 10° N 04:03:02 75° WNW 04:03:56 58° SW
Okean O Rocket 4.1 04:01:06 10° NE 04:04:02 17° E 04:06:57 10° SE
Cosmos 1605 Rocket 3.9 04:00:15 10° NNW 04:06:24 70° W 04:09:04 35° SSW
Cosmos-2242 2.9 04:02:38 10° N 04:07:02 76° W 04:07:34 65° SSW
GEOS 3 Rocket 3.6 04:02:44 10° NNE 04:08:03 84° NW 04:09:44 46° SW
Cosmos 1833 Rocket 2.9 04:05:58 35° S 04:08:17 67° ESE 04:13:52 10° NNE
ADEOS II 4.2 04:04:34 10° NE 04:08:41 23° E 04:12:46 10° SE
Cosmos 1339 Rocket 4.3 04:06:19 37° SSW 04:08:56 84° W 04:15:05 10° N
SL-16 R/B 2.7 04:11:06 39° SW 04:12:44 48° W 04:18:41 10° NNW
ADEOS Rocket 3.3 04:07:11 10° N 04:13:17 57° WNW 04:16:03 35° SW
Cosmos 1980 Rocket 4.2 04:09:09 10° N 04:14:05 29° ENE 04:18:59 10° ESE
Cosmos 2082 Rocket 2.2 04:13:23 37° SSW 04:15:47 85° ESE 04:21:31 10° NNE
Cosmos 389 Rocket 3.6 04:19:02 10° NNW 04:21:26 32° NW 04:21:26 32° NW
Cosmos 2098 Rocket 4.0 04:20:44 10° NNW 04:21:50 20° NW 04:21:50 20° NW
Cosmos 1842 Rocket 3.8 04:19:23 10° N 04:23:48 70° E 04:27:55 12° SSE
Lacrosse 5 rocket 3.7 04:23:22 14° WNW 04:25:35 18° NNW 04:28:50 10° NNE
CENTAUR R/B 3.4 04:18:42 10° NW 04:26:10 42° WSW 04:33:56 10° S
Timation 2 Rocket 4.3 04:23:34 21° S 04:28:06 69° ESE 04:34:31 10° NNE
CZ-2D R/B 3.3 04:27:08 10° N 04:31:07 64° WNW 04:32:15 42° SW
USA 267 3.1 04:24:39 10° SE 04:31:12 79° SW 04:37:46 10° NW
Cosmos 1378 3.2 04:31:08 49° WSW 04:31:42 56° W 04:35:23 10° N
Landsat 4 4.3 04:28:21 10° SSE 04:32:00 57° ENE 04:35:41 10° N
EXPRESS MD2 3.6 04:26:26 10° NW 04:32:01 67° NNE 04:34:57 10° ESE
Meteor 2-5 Rocket 3.8 04:32:45 28° SSW 04:35:43 60° WNW 04:41:31 10° N
Cosmos 2100 Rocket 3.9 04:35:11 10° N 04:41:24 88° W 04:47:32 10° S
Cosmos 2173 Rocket 4.0 04:35:48 10° N 04:42:05 86° E 04:48:15 10° S
Cosmos 1707 3.8 04:42:22 27° W 04:42:38 27° WNW 04:45:58 10° NNW
MOZ.5/SAFIR/RUBIN 5/SL-8 3.9 04:41:46 21° SSW 04:44:35 49° W 04:49:08 10° NNW
Meteor 1-16 Rocket 4.1 04:40:31 10° NNW 04:45:46 58° W 04:50:57 10° S
MOS 1 Rocket 3.2 04:43:11 10° N 04:47:33 61° WNW 04:50:21 22° SSW
ARIANE 5 R/B 3.8 04:43:57 10° NNW 04:48:07 25° WNW 04:49:59 20° W
Resurs 1-4 Rocket 3.4 04:45:37 10° NNW 04:49:41 23° WNW 04:51:36 19° W
In-Cosmos 22 4.2 04:45:33 10° S 04:50:49 74° E 04:56:06 10° NNE
Meteor 2-1 Rocket 4.3 04:46:13 10° N 04:51:57 84° E 04:57:45 10° S
Cosmos 1452 Rocket 4.3 04:49:54 10° NW 04:54:25 30° W 04:57:09 19° SW
OE (NEXTSAT) 4.4 04:57:51 27° WSW 04:59:38 80° NNW 05:03:11 10° ENE
CZ-4B R/B 3.2 04:59:42 10° NNE 05:04:08 83° ESE 05:08:39 10° S
CZ-2D R/B 4.0 05:11:03 10° NNW 05:13:48 14° WNW 05:16:19 11° W
MTI 4.5 05:14:33 10° SSE 05:17:43 57° ENE 05:20:54 10° N
Cosmos 2061 Rocket 4.2 05:12:31 10° NNW 05:18:30 52° W 05:24:26 10° SSW
Cosmos 2360 4.4 05:14:28 10° NNW 05:20:15 82° ENE 05:25:57 10° SSE
Cosmos 2016 Rocket 4.0 05:14:27 10° NNW 05:20:40 66° W 05:26:55 10° S
Cosmos 2123 Rocket 4.0 05:15:11 10° S 05:21:30 83° W 05:27:49 10° N
Cosmos 1076 Rocket 3.4 05:17:24 10° S 05:21:38 85° W 05:25:54 10° N
DELTA 2 R/B(2) 2.8 05:21:23 24° WSW 05:22:11 61° SSE 05:23:55 10° E
Okean 3 Rocket 3.7 05:18:12 10° SSW 05:22:30 54° W 05:26:52 10° N
Cosmos 1697 Rocket 3.0 05:17:16 10° NW 05:22:36 45° WSW 05:27:52 10° S
Meteor 1-24 Rocket 4.3 05:18:00 12° SW 05:22:45 38° WNW 05:28:04 10° N
Okean-O 4.4 05:19:01 10° NNE 05:23:02 33° E 05:27:01 10° SSE
Orbus 7S? 3.3 05:20:53 10° WNW 05:23:26 29° SW 05:25:49 10° S
Cosmos 1110 Rocket 4.0 05:19:23 10° NNW 05:24:44 88° WSW 05:30:00 10° SSE
Cosmos 1184 Rocket 3.4 05:27:47 10° S 05:31:05 61° E 05:34:23 10° NNE
Cosmos 1766 Rocket 3.6 05:29:09 10° S 05:33:38 89° ENE 05:38:07 10° N
CZ-4B DEB 4.3 05:29:48 10° N 05:35:16 66° WNW 05:40:39 10° SSW
GPS 2-05 Rocket1 3.3 05:36:25 10° W 05:39:49 46° S 05:43:10 10° ESE
Okean O Rocket 2.2 05:36:26 10° N 05:40:33 39° WNW 05:44:37 10° SW
IRS-1C Rocket 4.3 05:36:57 10° N 05:42:06 54° WNW 05:47:12 10° SSW
Cosmos 1674 2.9 05:41:35 10° SSW 05:45:16 50° W 05:49:01 10° N
ADEOS II 2.6 05:43:37 10° N 05:48:31 41° WNW 05:53:24 10° SW
Abrixas 2.9 05:45:47 10° NW 05:48:34 59° NNE 05:51:20 10° ESE
Cosmos 1356 Rocket 4.0 05:45:14 10° S 05:49:14 60° E 05:53:12 10° NNE
Cosmos 1331 Rocket 4.1 05:44:28 10° NNW 05:49:37 59° WSW 05:54:40 10° S
Cosmos 2322 Rocket 2.9 05:44:53 10° NNW 05:50:32 63° ENE 05:56:10 10° SSE
Meteor PRIRODA 3.6 05:46:59 10° N 05:50:39 69° WNW 05:54:17 10° SSW
